Date String (YYYY-MM-DD hh:mm:ss) UTC,Instrument flags,Ambient pressure (hPa),Sample flow (lpm),Bypass flow (lpm),Sample temperature (°C),Ambient temperature (°C),ASC tube jacket temperature (°C),LED temperature (°C),Box temperature (°C),Sample RH (%),Span deviation,Mass concentration (μg/m³),Mass concentration (μg/m³),Mass concentration (μg/m³)
DateTimeUTC,F1_M11,P_M11,Q1_M11,Q2_M11,T1_M11,T2_M11,T3_M11,T4_M11,T5_M11,U1_M11,ZSPAN_M11,X0_M11,X2_M11,X1_M11
2022-01-27 05:00:00,,0826.1,5.00,0.00,22.7,22.0,00.0,31.7,24.5,08.1,0000.0,0013.79,0004.78,0003.98
2022-01-27 05:01:00,,0826.1,5.00,0.00,22.7,22.0,00.0,31.7,24.5,08.7,0000.0,0013.16,0004.79,0003.94
2022-01-27 05:02:00,,0826.1,5.01,0.00,22.7,22.0,00.0,31.6,24.5,09.1,0000.0,0013.28,0004.86,0003.93
2022-01-27 05:03:00,,0826.1,5.00,0.00,22.7,21.9,00.0,31.6,24.4,09.3,0000.0,0012.88,0004.94,0003.93
2022-01-27 05:04:00,,0826.1,5.00,0.00,22.7,21.9,00.0,31.6,24.4,09.5,0000.0,0013.79,0004.98,0003.94
2022-01-27 05:05:00,,0826.1,5.00,0.00,22.7,21.9,00.0,31.6,24.4,09.6,0000.0,0015.66,0005.08,0003.96
2022-01-27 05:06:00,,0826.1,5.00,0.00,22.7,21.9,00.0,31.6,24.4,09.6,0000.0,0015.58,0005.17,0003.98
2022-01-27 05:07:00,,0826.1,5.00,0.00,22.6,21.9,00.0,31.6,24.4,09.6,0000.0,0016.76,0005.29,0004.01
2022-01-27 05:08:00,,0826.1,5.00,0.00,22.6,21.8,00.0,31.6,24.4,09.4,0000.0,0018.08,0005.33,0004.05
2022-01-27 05:09:00,,0826.3,5.00,0.00,22.6,21.8,00.0,31.6,24.3,09.6,0000.0,0019.04,0005.35,0004.07
2022-01-27 05:10:00,,0826.1,5.00,0.00,22.6,21.8,00.0,31.6,24.3,09.7,0000.0,0019.72,0005.42,0004.12
2022-01-27 05:11:00,,0826.1,5.01,0.00,22.6,21.8,00.0,31.6,24.3,09.5,0000.0,0019.20,0005.51,0004.21
2022-01-27 05:12:00,,0826.2,5.00,0.00,22.6,21.8,00.0,31.5,24.3,09.4,0000.0,0019.41,0005.66,0004.36
2022-01-27 05:13:00,,0826.2,5.00,0.00,22.6,21.8,00.0,31.5,24.3,09.5,0000.0,0018.78,0005.80,0004.54
2022-01-27 05:14:00,,0826.2,5.00,0.00,22.5,21.8,00.0,31.5,24.3,09.6,0000.0,0018.99,0005.99,0004.74
2022-01-27 05:15:00,,0826.2,5.00,0.00,22.5,21.8,00.0,31.5,24.3,09.8,0000.0,0018.16,0006.12,0004.96
2022-01-27 05:16:00,,0826.3,4.99,0.00,22.5,21.8,00.0,31.5,24.3,09.9,0000.0,0016.98,0006.27,0005.19
2022-01-27 05:17:00,,0826.3,5.00,0.00,22.5,21.8,00.0,31.5,24.2,09.9,0000.0,0016.75,0006.45,0005.43
2022-01-27 05:18:00,,0826.3,5.00,0.00,22.5,21.8,00.0,31.5,24.2,09.9,0000.0,0015.64,0006.66,0005.70
2022-01-27 05:19:00,,0826.4,5.00,0.00,22.5,21.8,00.0,31.5,24.2,09.9,0000.3,0014.16,0006.98,0005.99
2022-01-27 05:20:00,,0826.4,5.00,0.00,22.5,21.8,00.0,31.5,24.2,09.9,0000.9,0013.42,0007.28,0006.30
2022-01-27 05:21:00,,0826.4,5.00,0.00,22.5,21.8,00.0,31.5,24.2,10.0,0001.5,0013.32,0007.59,0006.60
2022-01-27 05:22:00,,0826.5,5.01,0.00,22.5,21.7,00.0,31.4,24.2,10.0,0001.7,0014.27,0007.90,0006.91
2022-01-27 05:23:00,,0826.5,5.00,0.00,22.4,21.7,00.0,31.4,24.2,10.0,0001.6,0014.11,0008.17,0007.21
2022-01-27 05:24:00,,0826.5,5.00,0.00,22.4,21.7,00.0,31.4,24.2,10.1,0002.0,0014.21,0008.42,0007.50
2022-01-27 05:25:00,,0826.5,4.99,0.00,22.5,21.8,00.0,31.4,24.2,10.1,0002.2,0014.43,0008.66,0007.77
2022-01-27 05:26:00,,0826.5,4.98,0.00,22.5,22.4,00.0,31.5,24.4,10.1,0002.5,0015.83,0008.92,0008.04
2022-01-27 05:27:00,,0826.5,5.01,0.00,22.7,23.1,00.0,31.5,24.6,10.0,0002.6,0016.11,0009.21,0008.30
2022-01-27 05:28:00,,0826.5,4.99,0.00,22.7,23.1,00.0,31.5,24.7,10.0,0002.7,0016.19,0009.48,0008.54
2022-01-27 05:29:00,,0826.5,5.01,0.00,22.8,22.9,00.0,31.5,24.7,10.0,0002.8,0016.44,0009.70,0008.76
2022-01-27 05:30:00,,0826.5,5.01,0.00,22.8,22.8,00.0,31.6,24.7,10.0,0002.8,0016.70,0009.83,0008.94
2022-01-27 05:31:00,,0826.5,4.98,0.00,22.8,22.6,00.0,31.6,24.6,10.0,0002.9,0017.47,0009.99,0009.09
2022-01-27 05:32:00,,0826.5,5.00,0.00,22.8,22.5,00.0,31.6,24.6,09.9,0002.7,0018.19,0010.14,0009.24
2022-01-27 05:33:00,,0826.5,5.00,0.00,22.8,22.4,00.0,31.6,24.6,09.9,0002.5,0018.28,0010.21,0009.32
2022-01-27 05:34:00,,0826.5,5.02,0.00,22.7,22.3,00.0,31.6,24.6,09.8,0002.6,0018.70,0010.22,0009.36
2022-01-27 05:35:00,,0826.5,5.00,0.00,22.7,22.3,00.0,31.6,24.5,09.7,0002.8,0018.73,0010.23,0009.37
2022-01-27 05:36:00,,0826.6,5.00,0.00,22.7,22.2,00.0,31.6,24.5,09.7,0002.5,0018.61,0010.24,0009.36
2022-01-27 05:37:00,,0826.6,4.99,0.00,22.7,22.1,00.0,31.6,24.5,09.8,0002.3,0017.55,0010.26,0009.33
2022-01-27 05:38:00,,0826.6,4.98,0.00,22.7,22.1,00.0,31.6,24.4,09.9,0002.1,0017.04,0010.17,0009.28
2022-01-27 05:39:00,,0826.6,5.00,0.00,22.7,22.1,00.0,31.6,24.4,09.7,0002.1,0016.73,0010.00,0009.18
2022-01-27 05:40:00,,0826.6,5.01,0.00,22.7,22.0,00.0,31.6,24.4,09.6,0001.9,0016.96,0009.81,0009.05
2022-01-27 05:41:00,,0826.6,4.99,0.00,22.6,22.0,00.0,31.6,24.4,09.6,0001.9,0016.85,0009.66,0008.91
2022-01-27 05:42:00,,0826.6,5.00,0.00,22.6,21.9,00.0,31.6,24.4,09.6,0002.0,0016.29,0009.55,0008.77
2022-01-27 05:43:00,,0826.6,4.99,0.00,22.6,21.9,00.0,31.6,24.4,09.7,0002.0,0015.38,0009.38,0008.62
2022-01-27 05:44:00,,0826.6,5.00,0.00,22.6,21.9,00.0,31.6,24.4,09.7,0002.1,0014.44,0009.23,0008.49
2022-01-27 05:45:00,,0826.6,5.00,0.00,22.6,21.9,00.0,31.6,24.4,09.6,0001.7,0014.14,0009.11,0008.36
2022-01-27 05:46:00,,0826.6,5.01,0.00,22.6,21.9,00.0,31.6,24.4,09.6,0000.0,0014.39,0009.00,0008.24
2022-01-27 05:47:00,,0826.7,5.00,0.00,22.6,21.9,00.0,31.6,24.4,09.6,0001.9,0014.32,0008.87,0008.13
2022-01-27 05:48:00,,0826.6,4.99,0.00,22.6,21.8,00.0,31.6,24.3,09.5,0003.3,0014.46,0008.72,0008.03
2022-01-27 05:49:00,,0826.6,5.00,0.00,22.6,21.8,00.0,31.5,24.3,09.5,0003.3,0015.12,0008.63,0007.93
2022-01-27 05:50:00,,0826.7,5.00,0.00,22.6,21.8,00.0,31.5,24.3,09.5,0003.5,0015.15,0008.62,0007.88
2022-01-27 05:51:00,,0826.7,4.99,0.00,22.5,21.8,00.0,31.5,24.3,09.5,0003.9,0014.97,0008.62,0007.87
2022-01-27 05:52:00,,0826.7,5.00,0.00,22.5,21.8,00.0,31.5,24.3,09.5,0004.0,0015.16,0008.63,0007.86
2022-01-27 05:53:00,,0826.7,5.00,0.00,22.5,21.8,00.0,31.5,24.3,09.6,0003.9,0015.21,0008.58,0007.84
2022-01-27 05:54:00,,0826.7,5.00,0.00,22.5,21.8,00.0,31.5,24.3,09.6,0004.1,0015.21,0008.58,0007.87
2022-01-27 05:55:00,,0826.7,5.01,0.00,22.5,21.7,00.0,31.5,24.3,09.7,0003.6,0015.26,0008.61,0007.89
2022-01-27 05:56:00,,0826.7,5.00,0.00,22.5,21.7,00.0,31.5,24.3,09.7,0003.8,0015.15,0008.64,0007.93
2022-01-27 05:57:00,,0826.7,5.00,0.00,22.5,21.7,00.0,31.5,24.2,09.7,0003.4,0015.39,0008.69,0007.98
2022-01-27 05:58:00,,0826.8,5.00,0.00,22.5,21.7,00.0,31.5,24.2,09.6,0003.2,0015.62,0008.76,0008.07
2022-01-27 05:59:00,,0826.8,4.99,0.00,22.5,21.7,00.0,31.4,24.2,09.6,0002.8,0015.68,0008.84,0008.14
